• In Hungary
  • List of Countries
  • For 7 days
  • Water Temperature
  • Satellite Maps
  • Weather Map
  • News
  • Weather Widgets
  • user-avatar
    Login

    Hourly Weather Gribovka

    Today, 19 August, Sunday

    Time Temperature Precipitation Wind Pressure Humidity
    00:00 +16°C° 0 mm 1 mps 750 mmHg 65%
    01:00 +16°C° 0 mm 1 mps 750 mmHg 67%
    02:00 +15°C° 0 mm 1 mps 750 mmHg 68%
    03:00 +15°C° 0 mm 1 mps 750 mmHg 74%
    04:00 +15°C° 0 mm 1 mps 750 mmHg 75%
    05:00 +15°C° 0 mm 1 mps 750 mmHg 76%
    06:00 +15°C° 0 mm 1 mps 750 mmHg 77%
    07:00 +18°C° 0 mm 1 mps 750 mmHg 72%
    08:00 +20°C° 0 mm 1 mps 750 mmHg 67%
    09:00 +21°C° 0 mm 2 mps 750 mmHg 61%
    10:00 +23°C° 0 mm 2 mps 750 mmHg 57%
    11:00 +24°C° 0 mm 2 mps 749 mmHg 53%
    12:00 +25°C° 0 mm 2 mps 749 mmHg 50%
    13:00 +26°C° 0 mm 3 mps 749 mmHg 49%
    14:00 +26°C° 0 mm 3 mps 748 mmHg 49%
    15:00 +26°C° 0 mm 3 mps 748 mmHg 48%
    16:00 +26°C° 0 mm 3 mps 748 mmHg 52%
    17:00 +26°C° 0 mm 3 mps 747 mmHg 56%
    18:00 +25°C° 0 mm 3 mps 747 mmHg 60%
    19:00 +22°C° 0 mm 3 mps 747 mmHg 64%
    20:00 +21°C° 0 mm 3 mps 747 mmHg 67%
    21:00 +19°C° 0 mm 3 mps 747 mmHg 71%
    22:00 +19°C° 0 mm 3 mps 747 mmHg 72%
    23:00 +18°C° 0 mm 3 mps 747 mmHg 72%

    Tomorrow, 20 August, Monday

    Time Temperature Precipitation Wind Pressure Humidity
    00:00 +18°C° 0 mm 3 mps 746 mmHg 73%
    01:00 +17°C° 0 mm 3 mps 746 mmHg 74%
    02:00 +17°C° 0 mm 3 mps 746 mmHg 75%
    03:00 +17°C° 0 mm 3 mps 746 mmHg 76%
    04:00 +17°C° 0 mm 3 mps 746 mmHg 77%
    05:00 +16°C° 0 mm 3 mps 746 mmHg 79%
    06:00 +16°C° 0 mm 3 mps 746 mmHg 81%
    07:00 +18°C° 0 mm 3 mps 746 mmHg 77%
    08:00 +20°C° 0 mm 3 mps 746 mmHg 73%
    09:00 +21°C° 0 mm 4 mps 746 mmHg 69%
    10:00 +23°C° 0.1 mm 4 mps 746 mmHg 65%
    11:00 +25°C° 0.1 mm 4 mps 746 mmHg 61%
    12:00 +26°C° 0.1 mm 5 mps 745 mmHg 57%
    13:00 +27°C° 0.1 mm 5 mps 745 mmHg 56%
    14:00 +27°C° 0.1 mm 5 mps 745 mmHg 55%
    15:00 +27°C° 0.1 mm 5 mps 744 mmHg 54%
    16:00 +27°C° 0.2 mm 4 mps 744 mmHg 58%
    17:00 +26°C° 0.2 mm 4 mps 744 mmHg 62%
    18:00 +26°C° 0.2 mm 3 mps 743 mmHg 67%
    19:00 +24°C° 0 mm 3 mps 743 mmHg 72%
    20:00 +21°C° 0 mm 3 mps 743 mmHg 78%
    21:00 +20°C° 0 mm 3 mps 743 mmHg 84%
    22:00 +19°C° 0 mm 3 mps 743 mmHg 85%
    23:00 +19°C° 0 mm 3 mps 743 mmHg 87%

    Day after tomorrow, 21 August, Tuesday

    Time Temperature Precipitation Wind Pressure Humidity
    00:00 +18°C° 0 mm 3 mps 743 mmHg 89%
    01:00 +18°C° 0 mm 3 mps 742 mmHg 89%
    02:00 +18°C° 0 mm 3 mps 742 mmHg 90%
    03:00 +18°C° 0 mm 3 mps 742 mmHg 91%
    04:00 +17°C° 0 mm 3 mps 742 mmHg 91%
    05:00 +17°C° 0 mm 4 mps 741 mmHg 90%
    06:00 +17°C° 0 mm 4 mps 741 mmHg 90%
    07:00 +19°C° 0 mm 5 mps 741 mmHg 83%
    08:00 +21°C° 0 mm 5 mps 741 mmHg 77%
    09:00 +22°C° 0 mm 6 mps 740 mmHg 71%
    10:00 +23°C° 0.2 mm 7 mps 740 mmHg 67%
    11:00 +24°C° 0.2 mm 8 mps 739 mmHg 64%
    12:00 +26°C° 0.2 mm 8 mps 739 mmHg 60%
    13:00 +26°C° 1 mm 8 mps 739 mmHg 63%
    14:00 +26°C° 1 mm 8 mps 738 mmHg 65%
    15:00 +24°C° 1 mm 8 mps 738 mmHg 68%
    16:00 +23°C° 1.2 mm 7 mps 738 mmHg 71%
    17:00 +22°C° 1.2 mm 7 mps 738 mmHg 75%
    18:00 +21°C° 1.2 mm 6 mps 738 mmHg 79%
    19:00 +20°C° 0.1 mm 5 mps 738 mmHg 81%
    20:00 +19°C° 0.1 mm 4 mps 739 mmHg 83%
    21:00 +17°C° 0.1 mm 4 mps 739 mmHg 85%
    22:00 +15°C° 0 mm 4 mps 740 mmHg 86%
    23:00 +14°C° 0 mm 4 mps 740 mmHg 87%

    22 August, Wednesday

    Time Temperature Precipitation Wind Pressure Humidity
    00:00 +13°C° 0 mm 4 mps 741 mmHg 87%
    01:00 +13°C° 0 mm 4 mps 741 mmHg 87%
    02:00 +12°C° 0 mm 4 mps 741 mmHg 87%
    03:00 +11°C° 0 mm 4 mps 741 mmHg 87%
    04:00 +11°C° 0 mm 4 mps 742 mmHg 88%
    05:00 +10°C° 0 mm 5 mps 742 mmHg 90%
    06:00 +10°C° 0 mm 5 mps 743 mmHg 91%
    07:00 +12°C° 0 mm 5 mps 743 mmHg 85%
    08:00 +13°C° 0 mm 6 mps 744 mmHg 80%
    09:00 +14°C° 0 mm 6 mps 744 mmHg 74%
    10:00 +15°C° 0 mm 6 mps 744 mmHg 67%
    11:00 +16°C° 0 mm 6 mps 745 mmHg 60%
    12:00 +17°C° 0 mm 6 mps 745 mmHg 53%
    13:00 +17°C° 0 mm 6 mps 745 mmHg 52%
    14:00 +17°C° 0 mm 6 mps 746 mmHg 51%
    15:00 +19°C° 0 mm 6 mps 746 mmHg 50%
    16:00 +17°C° 0 mm 6 mps 746 mmHg 53%
    17:00 +16°C° 0 mm 5 mps 747 mmHg 56%
    18:00 +17°C° 0 mm 4 mps 747 mmHg 58%
    19:00 +14°C° 0 mm 4 mps 747 mmHg 62%
    20:00 +13°C° 0 mm 3 mps 748 mmHg 65%
    21:00 +11°C° 0 mm 3 mps 748 mmHg 68%
    22:00 +11°C° 0 mm 3 mps 749 mmHg 69%
    23:00 +10°C° 0 mm 2 mps 749 mmHg 70%

    23 August, Thursday

    Time Temperature Precipitation Wind Pressure Humidity
    00:00 +10°C° 0 mm 2 mps 749 mmHg 71%
    01:00 +9°C° 0 mm 2 mps 750 mmHg 72%
    02:00 +9°C° 0 mm 2 mps 750 mmHg 73%
    03:00 +9°C° 0 mm 2 mps 750 mmHg 74%
    04:00 +9°C° 0 mm 2 mps 750 mmHg 75%
    05:00 +8°C° 0 mm 2 mps 751 mmHg 76%
    06:00 +8°C° 0 mm 2 mps 751 mmHg 77%
    07:00 +10°C° 0 mm 2 mps 751 mmHg 71%
    08:00 +13°C° 0 mm 2 mps 751 mmHg 65%
    09:00 +15°C° 0 mm 1 mps 751 mmHg 59%
    10:00 +16°C° 0 mm 2 mps 751 mmHg 54%
    11:00 +18°C° 0 mm 2 mps 751 mmHg 50%
    12:00 +19°C° 0 mm 2 mps 751 mmHg 45%
    13:00 +19°C° 0 mm 2 mps 751 mmHg 44%
    14:00 +20°C° 0 mm 2 mps 751 mmHg 43%
    15:00 +20°C° 0 mm 2 mps 751 mmHg 42%
    16:00 +20°C° 0 mm 2 mps 750 mmHg 46%
    17:00 +20°C° 0 mm 2 mps 750 mmHg 50%
    18:00 +20°C° 0 mm 1 mps 750 mmHg 54%
    19:00 +19°C° 0 mm 1 mps 750 mmHg 56%
    20:00 +16°C° 0 mm 1 mps 750 mmHg 59%
    21:00 +14°C° 0 mm 1 mps 750 mmHg 62%
    22:00 +14°C° 0 mm 2 mps 751 mmHg 63%
    23:00 +13°C° 0 mm 2 mps 751 mmHg 64%

    24 August, Friday

    Time Temperature Precipitation Wind Pressure Humidity
    00:00 +13°C° 0 mm 2 mps 751 mmHg 65%
    01:00 +12°C° 0 mm 2 mps 751 mmHg 66%
    02:00 +12°C° 0 mm 2 mps 751 mmHg 67%
    03:00 +12°C° 0 mm 2 mps 751 mmHg 68%
    04:00 +12°C° 0 mm 2 mps 751 mmHg 70%
    05:00 +10°C° 0 mm 2 mps 751 mmHg 71%
    06:00 +10°C° 0 mm 2 mps 751 mmHg 72%
    07:00 +13°C° 0 mm 2 mps 751 mmHg 67%
    08:00 +15°C° 0 mm 2 mps 751 mmHg 62%
    09:00 +17°C° 0 mm 2 mps 751 mmHg 57%
    10:00 +19°C° 0 mm 2 mps 751 mmHg 53%
    11:00 +20°C° 0 mm 3 mps 751 mmHg 49%
    12:00 +21°C° 0 mm 3 mps 751 mmHg 45%
    13:00 +22°C° 0 mm 3 mps 751 mmHg 45%
    14:00 +22°C° 0 mm 3 mps 750 mmHg 44%
    15:00 +22°C° 0 mm 3 mps 750 mmHg 43%
    16:00 +22°C° 0 mm 3 mps 750 mmHg 47%
    17:00 +23°C° 0 mm 2 mps 750 mmHg 51%
    18:00 +21°C° 0 mm 2 mps 749 mmHg 55%
    19:00 +19°C° 0 mm 2 mps 749 mmHg 58%
    20:00 +17°C° 0 mm 2 mps 750 mmHg 61%
    21:00 +16°C° 0 mm 2 mps 750 mmHg 64%
    22:00 +15°C° 0 mm 2 mps 750 mmHg 65%
    23:00 +15°C° 0 mm 2 mps 750 mmHg 66%
    Show more